User: anonymous   Login
Location: Unspecified
(0.0000°N, 0.0000°E)
Time: 17:37:23
(UTC+00:00)
Language:

Transit 4B - Orbit

View from above orbital plane
View from above orbital plane
View from above satellite
View from above satellite

Ground track
Ground track

The orbit data is extracted from the following two-line orbital elements,

1   202U 61031A   18170.61144182 +.00000023 +00000-0 +26527-5 0  9991
2   202 032.4364 221.5705 0101352 003.6148 356.5189 13.63516624822257
Epoch (UTC): 19 June 2018 14:40:28
Eccentricity: 0.0101352
inclination: 32.4364°
perigee height: 948 km
apogee height: 1098 km
right ascension of ascending node: 221.5705°
argument of perigee: 3.6148°
revolutions per day: 13.63516624
mean anomaly at epoch: 356.5189°
orbit number at epoch: 82225

The dashed part of the orbit path shows where the satellite is in the earth's shadow,  

DLR